Flag for Thailand Weather past 2 weeks in Phuket, Thailand

Now
77 °F

Thunderstorms. Partly cloudy.


Feels Like: 78 °F
Forecast: 82 / 87 °F
Wind: 6 mph from Southwest

Location: Phuket Airport

Current Time: Aug 23, 2014 at 7:33:03 PM

Latest Report: Aug 23, 2014 at 7:00 PM


Visibility: 1 mi

Pressure: 29.80 "Hg

Humidity: 94%

Dew point: 75 °F

Location of PhuketLocation

Historic Weather in Phuket — Graph

°F

Phuket temperature yesterday

Maximum temperature yesterday: 88 °F (at 12:00 PM)
Minimum temperature yesterday: 77 °F (at 12:30 AM)
Average temperature yesterday: 83 °F

Past Weeks' High & Low Weather Summary

 TemperatureHumidityPressure
High90 °F (Aug 23, 11:30 AM)94% (Aug 8, 8:00 PM)29.95 "Hg (Aug 8, 8:00 PM)
Low73 °F (Aug 16, 11:00 AM)62% (Aug 10, 11:30 AM)29.74 "Hg (Aug 21, 5:30 PM)
Average81 °F79%29.85 "Hg
* Reported Aug 8 6:00 PM — Aug 23 6:30 PM, Phuket, Weather by CustomWeather, © 2014

Note: Actual official high and low records may vary slightly from our data, if they occured in-between our weather recording intervals... More about our weather records

Advertising

Phuket weather history for previous 24 hours

 ConditionsComfort  
Time TempWeatherWind HumidityBarometerVisibility
6:30 PM
Aug 23
79 °FStrong thunderstorms. Broken clouds.5 mph89%29.80 "Hg1 mi
6:00 PM79 °FThunderstorms. Broken clouds.3 mph89%29.80 "Hg5 mi
5:30 PM79 °FBroken clouds.5 mph89%29.77 "Hg5 mi
5:00 PM79 °FRain. Broken clouds.6 mph89%29.77 "Hg2 mi
4:30 PM81 °FRain. Broken clouds.5 mph89%29.77 "Hg2 mi
4:00 PM84 °FBroken clouds.7 mph79%29.80 "Hg5 mi
3:30 PM82 °FBroken clouds.5 mph79%29.80 "Hg5 mi
3:00 PM88 °FRain. Scattered clouds.9 mph66%29.80 "Hg2 mi
2:30 PM88 °FRain. Broken clouds.13 mph70%29.83 "Hg3 mi
2:00 PM86 °FScattered showers. Scattered clouds.9 mph70%29.83 "Hg4 mi
1:30 PM86 °FScattered clouds.12 mph70%29.83 "Hg5 mi
1:00 PM88 °FPassing clouds.7 mph66%29.86 "HgN/A
12:30 PM88 °FScattered clouds.7 mph66%29.86 "HgN/A
12:00 PM88 °FScattered clouds.7 mph66%29.89 "HgN/A
11:30 AM90 °FPartly sunny.5 mph63%29.89 "HgN/A
11:00 AM88 °FPartly sunny.3 mph66%29.89 "HgN/A
10:30 AM88 °FPartly sunny.2 mph66%29.89 "HgN/A
10:00 AM86 °FPartly sunny.6 mph66%29.89 "HgN/A
9:30 AM86 °FPartly sunny.2 mph66%29.89 "HgN/A
9:00 AM84 °FPartly sunny.3 mph74%29.89 "HgN/A
8:30 AM82 °FPartly sunny.5 mph79%29.89 "HgN/A
8:00 AM81 °FPartly sunny.6 mph84%29.86 "HgN/A
7:30 AM77 °FPartly sunny.No wind94%29.86 "HgN/A
7:00 AM77 °FPartly sunny.No wind89%29.83 "HgN/A
6:30 AM77 °FPartly sunny.No wind89%29.83 "HgN/A
5:30 AM77 °FPassing clouds.No wind89%29.83 "HgN/A
5:00 AM77 °FPassing clouds.No wind89%29.83 "HgN/A
4:30 AM79 °FPassing clouds.No wind84%29.83 "HgN/A
2:00 AM79 °FPassing clouds.No wind84%29.86 "HgN/A
1:30 AM79 °FPassing clouds.No wind84%29.86 "HgN/A
12:00 AM79 °FPartly cloudy.No wind84%29.86 "HgN/A
11:30 PM
Aug 22
81 °FPartly cloudy.No wind84%29.89 "HgN/A
11:00 PM81 °FPassing clouds.No wind84%29.89 "HgN/A
10:30 PM81 °FPassing clouds.No wind84%29.86 "HgN/A
10:00 PM82 °FPassing clouds.No wind74%29.86 "HgN/A
9:30 PM82 °FWarm.No wind79%29.86 "HgN/A
9:00 PM82 °FPassing clouds.3 mph74%29.83 "HgN/A
8:30 PM82 °FPassing clouds.6 mph74%29.83 "HgN/A
8:00 PM84 °FPartly cloudy.7 mph70%29.80 "Hg6 mi
7:30 PM84 °FPartly cloudy.7 mph70%29.80 "Hg6 mi
7:00 PM84 °FPartly cloudy.8 mph70%29.77 "Hg6 mi
Weather by CustomWeather, © 2014

See weather overviewHow to use our weather pages